GFSSE_con_mlcape_273.txt.gz
CAPE
101 175 264 206 172 339 335 207 83 9 0 0 0 0 0 28 31 3 0 0 0 0 4 4 38 13 7 125 145 38 7 0 8 12 5 81 122 84 56 24 5 5 8
97 208 227 286 230 290 404 176 74 9 0 0 0 0 5 0 0 0 0 0 0 0 8 14 70 60 24 53 98 66 24 34 42 48 5 69 75 51 27 7 6 6 2
164 294 156 246 272 210 417 268 122 43 1 0 0 0 1 16 0 0 0 0 0 0 5 15 36 41 25 28 32 41 34 50 25 35 48 24 51 55 26 8 4 2 4
364 349 206 215 215 204 327 310 182 97 30 3 1 0 0 60 82 8 1 28 40 0 6 5 13 32 24 22 24 31 21 15 17 35 41 41 47 49 10 6 2 2 13
495 389 276 257 276 200 228 375 236 188 98 10 4 4 4 82 220 124 110 50 25 0 8 23 26 23 18 20 18 37 27 18 39 31 31 26 27 39 7 3 3 14 10
549 475 376 346 307 222 199 280 313 252 192 78 64 6 5 124 198 182 44 31 48 74 32 21 21 15 14 19 16 23 22 24 28 17 19 20 13 30 6 1 9 5 7
636 561 474 387 393 360 238 144 248 276 232 131 247 159 56 165 125 84 41 28 25 25 46 33 21 8 0 11 26 11 20 17 6 3 4 1 2 6 11 6 1 2 5
641 555 586 457 450 409 389 248 61 199 131 177 289 144 103 168 92 70 45 29 18 11 15 31 25 15 0 24 38 41 31 11 0 1 0 2 1 20 13 3 3 3 4
468 380 290 356 413 351 386 332 127 35 30 46 185 168 125 157 132 42 27 24 13 13 10 17 19 27 15 34 19 32 8 11 5 1 3 0 7 18 10 8 0 1 1
0 0 0 63 191 262 262 233 275 129 60 11 74 169 149 124 60 12 31 25 15 29 26 17 18 18 31 28 26 8 1 1 0 2 2 2 8 22 7 4 4 2 1
0 0 0 0 0 0 108 201 144 178 140 117 35 4 58 52 33 27 14 15 28 9 20 17 18 23 38 30 40 10 0 0 1 6 1 5 27 24 16 8 5 3 1
0 0 0 0 0 0 0 9 128 154 103 109 70 46 39 54 49 34 25 23 28 28 21 16 12 36 32 31 19 11 0 0 0 2 10 10 23 33 12 10 1 3 1
0 0 0 0 0 0 0 0 0 4 53 38 24 29 34 46 35 38 24 16 18 36 29 20 11 37 33 21 30 15 2 0 0 0 7 13 41 17 7 8 5 1 1
0 0 0 0 0 0 0 0 0 0 0 0 15 15 0 0 5 21 23 15 19 23 16 13 0 7 5 11 1 13 8 0 0 5 3 35 33 28 5 10 2 1 7
0 0 0 0 0 0 0 0 0 0 0 0 0 0 16 7 8 5 9 18 22 16 18 12 1 2 6 2 24 34 3 2 4 15 1 4 18 22 17 17 21 6 4
0 0 0 0 0 0 0 0 0 0 0 0 0 0 0 4 13 23 18 1 18 11 20 13 5 0 1 1 22 29 17 7 1 22 15 11 31 35 22 12 12 26 9
0 0 0 0 0 0 0 0 0 0 0 0 0 0 0 0 0 20 25 37 10 10 21 18 18 10 3 2 6 29 37 3 1 2 18 4 29 29 25 21 12 10 27
0 0 0 0 0 0 0 0 0 0 0 0 0 0 0 0 0 0 14 13 11 19 34 31 33 13 8 0 2 4 2 0 2 1 18 6 13 17 31 32 6 16 28
0 0 0 0 0 0 0 0 0 0 0 0 0 0 0 0 0 0 0 4 3 13 51 46 32 31 6 1 0 0 0 0 0 0 2 12 14 6 15 37 11 9 11
0 0 0 0 0 0 0 0 0 0 0 0 0 0 0 0 0 0 0 0 4 12 28 51 39 20 4 1 0 0 0 0 1 0 0 0 1 2 0 11 10 11 8
0 0 0 0 0 0 0 0 0 0 0 0 0 0 0 0 0 0 0 0 0 3 32 27 27 12 2 1 0 2 1 2 2 2 2 0 0 0 0 0 5 8 7
0 0 0 0 0 0 0 0 0 0 0 0 0 0 0 0 0 0 0 0 0 0 2 37 1 1 0 1 0 1 0 2 3 5 2 3 1 0 0 0 0 1 0
0 0 0 0 0 0 0 0 0 0 0 0 0 0 0 0 0 0 0 0 0 0 0 1 12 0 0 3 0 0 0 0 0 3 5 6 5 4 3 0 0 0 0
0 0 0 0 0 0 0 0 0 0 0 0 0 0 0 0 0 0 0 0 0 0 0 0 2 0 0 1 1 0 0 0 0 0 2 2 2 2 4 5 2 0 0
0 0 0 0 0 0 0 0 0 0 0 0 0 0 0 0 0 0 0 0 0 0 0 0 0 0 0 0 0 0 0 0 0 0 0 1 2 1 1 3 3 2 1
0 0 0 0 0 0 0 0 0 0 0 0 0 0 0 0 0 0 0 0 0 0 0 0 0 1 0 0 0 0 0 0 0 0 0 5 0 1 2 1 1 3 3

GFSSE_con_mlcape_276.txt.gz
CAPE
87 97 266 222 232 269 383 221 46 5 0 36 34 186 319 327 235 149 166 182 290 171 99 129 12 0 1 0 6 0 0 0 5 11 23 115 129 95 54 10 6 8 10
34 160 326 235 150 292 389 305 87 1 0 0 23 18 109 180 177 100 47 61 115 80 12 1 47 7 161 116 43 21 0 3 0 6 51 96 92 71 30 3 4 8 6
101 243 315 280 180 156 253 212 120 0 0 0 0 16 15 18 29 22 0 0 0 0 1 1 130 28 64 121 105 27 17 31 0 6 48 63 59 67 36 7 9 6 9
317 311 274 318 333 199 286 247 163 41 0 0 0 0 3 11 4 4 0 0 0 1 14 58 101 36 18 20 64 59 33 44 24 24 42 50 56 63 24 9 9 10 5
514 380 268 213 311 263 200 324 210 160 90 9 0 0 0 3 10 2 0 27 4 0 6 13 23 26 25 19 35 48 40 14 3 28 41 43 42 44 18 13 15 7 4
521 474 336 211 211 207 196 220 343 162 207 101 39 1 1 0 119 53 26 47 48 37 1 16 38 23 11 28 21 32 24 2 0 5 30 41 20 48 18 13 9 3 4
613 536 453 390 396 333 191 164 130 182 211 205 118 80 0 0 113 94 58 49 45 48 29 34 23 28 13 18 22 42 29 0 0 26 12 17 28 35 10 2 4 4 2
512 410 448 441 391 378 310 193 134 132 137 128 62 209 129 53 152 129 44 19 40 44 47 41 21 15 18 12 19 46 17 3 5 11 21 12 7 25 20 3 2 4 1
0 0 0 23 151 196 218 173 196 125 45 123 50 140 99 45 186 150 112 9 22 39 29 28 31 9 5 23 31 43 15 10 3 6 10 6 12 32 22 9 10 6 4
0 0 0 0 0 0 37 119 117 147 65 17 46 117 70 54 24 64 74 51 31 15 16 9 14 21 3 1 35 39 41 19 7 11 13 9 30 48 25 15 8 5 1
0 0 0 0 0 0 0 0 2 58 132 82 71 18 45 108 84 8 43 68 51 29 6 18 6 13 5 35 36 29 17 4 11 21 29 23 41 50 27 8 9 3 1
0 0 0 0 0 0 0 0 0 0 18 85 43 81 48 78 128 93 9 16 21 29 25 36 22 20 7 26 38 24 11 0 6 22 14 32 44 52 22 8 3 4 1
0 0 0 0 0 0 0 0 0 0 0 0 0 0 19 90 89 107 36 0 0 6 21 31 26 30 16 18 19 8 0 1 6 8 23 35 42 49 37 15 9 11 2
0 0 0 0 0 0 0 0 0 0 0 0 0 0 0 2 86 61 53 14 0 0 0 6 16 18 14 11 0 13 3 0 0 0 1 27 55 42 24 19 6 9 4
0 0 0 0 0 0 0 0 0 0 0 0 0 0 0 0 0 34 50 40 24 10 9 23 25 19 18 19 1 1 9 3 0 0 1 7 24 37 22 11 22 10 3
0 0 0 0 0 0 0 0 0 0 0 0 0 0 0 0 0 0 5 55 35 20 21 37 26 23 25 44 21 3 1 2 4 2 0 5 17 41 48 47 21 14 11
0 0 0 0 0 0 0 0 0 0 0 0 0 0 0 0 0 0 0 0 36 42 45 40 26 16 19 26 42 14 13 14 0 0 5 26 34 32 39 26 19 17 10
0 0 0 0 0 0 0 0 0 0 0 0 0 0 0 0 0 0 0 0 0 46 45 39 18 15 14 10 18 37 35 17 13 12 13 15 19 13 22 40 22 26 18
0 0 0 0 0 0 0 0 0 0 0 0 0 0 0 0 0 0 0 0 0 0 35 56 8 1 13 12 13 14 28 27 25 14 18 11 20 13 26 43 28 11 18
0 0 0 0 0 0 0 0 0 0 0 0 0 0 0 0 0 0 0 0 0 0 0 25 31 3 12 20 2 0 0 0 0 1 11 19 15 10 13 8 19 4 16
0 0 0 0 0 0 0 0 0 0 0 0 0 0 0 0 0 0 0 0 0 0 0 0 2 5 5 11 0 0 2 1 0 0 0 1 0 1 1 7 9 0 6
0 0 0 0 0 0 0 0 0 0 0 0 0 0 0 0 0 0 0 0 0 0 0 0 0 2 4 1 0 2 0 1 5 2 2 0 0 0 0 0 1 0 3
0 0 0 0 0 0 0 0 0 0 0 0 0 0 0 0 0 0 0 0 0 0 0 0 0 0 1 3 0 4 0 0 0 5 3 2 2 1 2 0 0 1 0
0 0 0 0 0 0 0 0 0 0 0 0 0 0 0 0 0 0 0 0 0 0 0 0 0 0 1 1 1 0 0 0 0 0 4 7 3 2 1 1 1 0 0
0 0 0 0 0 0 0 0 0 0 0 0 0 0 0 0 0 0 0 4 12 6 11 19 0 0 0 2 0 0 0 0 0 0 0 0 7 3 0 1 2 2 0
0 0 0 0 0 0 0 0 0 0 0 0 0 0 0 0 0 0 0 0 0 0 0 0 0 0 0 0 1 0 0 0 0 0 0 1 1 4 7 1 2 0 1

GFSSE_con_mlcape_279.txt.gz
CAPE
35 94 249 302 282 302 321 188 144 56 62 141 206 332 531 463 447 428 481 515 403 418 375 258 241 170 37 8 0 0 0 0 15 226 205 222 169 91 26 8 8 9 11
12 104 239 283 278 340 329 185 89 21 35 31 202 397 436 319 420 362 389 351 339 344 254 217 56 1 0 9 0 0 0 0 0 12 122 99 137 84 31 3 3 7 7
129 152 308 277 291 249 234 262 117 7 0 21 70 130 292 270 298 314 306 263 313 251 166 130 28 62 55 84 0 2 0 0 0 5 32 100 68 60 12 1 5 6 9
359 224 358 344 242 240 252 276 234 107 39 0 0 70 41 84 98 77 84 66 88 94 76 3 123 77 141 85 43 17 21 0 0 8 65 46 67 49 21 9 10 6 5
499 366 337 350 357 272 260 277 236 173 88 45 0 0 1 3 3 2 0 0 0 0 1 9 260 88 35 34 33 26 24 18 0 9 63 28 48 52 22 15 12 7 8
540 489 393 274 282 291 216 203 279 166 117 77 7 0 0 2 8 22 0 0 0 0 5 80 151 52 22 24 44 51 68 34 0 21 40 45 25 40 23 15 6 2 5
540 503 495 421 362 277 209 155 99 178 142 107 127 51 19 0 2 134 8 7 54 27 12 8 0 23 10 22 29 53 43 37 30 52 51 40 35 50 27 13 4 4 7
126 43 42 148 294 306 247 242 215 121 71 128 138 118 113 58 20 135 117 54 37 25 28 11 20 0 1 7 27 32 41 21 50 60 61 47 32 37 8 3 1 5 7
0 0 0 0 0 0 16 62 107 158 174 85 74 61 21 183 73 131 145 69 23 49 30 29 25 0 0 0 10 28 30 19 36 52 66 67 42 60 12 6 5 8 4
0 0 0 0 0 0 0 0 0 0 58 118 97 36 39 77 123 35 131 116 65 27 50 31 18 10 4 0 0 19 32 30 24 45 52 47 53 68 28 17 5 8 7
0 0 0 0 0 0 0 0 0 0 0 0 15 46 60 82 130 154 47 117 97 34 24 38 23 28 12 0 0 6 16 36 34 33 43 46 44 70 40 26 7 8 11
0 0 0 0 0 0 0 0 0 0 0 0 0 0 2 37 100 129 142 58 125 70 50 29 35 32 28 35 18 20 38 14 23 50 50 57 62 77 55 18 15 5 5
0 0 0 0 0 0 0 0 0 0 0 0 0 0 0 0 10 56 88 78 87 96 71 25 36 62 50 19 23 33 43 12 27 41 51 66 86 92 56 30 8 17 5
0 0 0 0 0 0 0 0 0 0 0 0 0 0 0 0 0 0 50 69 96 56 57 37 34 41 41 20 7 20 24 15 21 35 39 54 76 78 64 38 28 12 6
0 0 0 0 0 0 0 0 0 0 0 0 0 0 0 0 0 0 0 0 59 62 48 33 25 13 18 22 17 15 16 22 15 20 38 31 64 71 67 41 21 6 13
0 0 0 0 0 0 0 0 0 0 0 0 0 0 0 0 0 0 0 0 0 3 51 32 33 33 16 37 21 10 24 17 17 18 34 40 35 91 62 40 37 16 8
0 0 0 0 0 0 0 0 0 0 0 0 0 0 0 0 0 0 0 0 0 0 0 9 11 29 47 41 38 20 1 13 15 16 23 16 16 59 54 34 20 14 23
0 0 0 0 0 0 0 0 0 0 0 0 0 0 0 0 0 0 0 0 0 0 0 0 19 8 12 42 47 31 15 11 1 23 29 6 17 21 51 45 18 23 10
0 0 0 0 0 0 0 0 0 0 0 0 0 0 0 0 0 0 0 0 0 0 0 0 0 11 2 7 44 45 33 6 1 9 33 8 7 24 48 18 24 22 10
0 0 0 0 0 0 0 0 0 0 0 0 0 0 0 0 0 0 0 0 0 0 0 0 0 0 8 0 2 22 46 43 16 14 13 21 9 22 46 52 45 12 10
0 0 0 0 0 0 0 0 0 0 0 0 0 0 0 0 0 0 0 0 0 0 0 0 0 0 0 24 21 0 0 0 0 6 10 29 23 30 40 28 47 15 5
0 0 0 0 0 0 0 0 0 0 0 0 0 0 0 0 0 0 0 0 0 0 0 0 0 0 0 0 0 0 0 1 2 2 1 0 0 0 25 11 19 11 1
0 0 0 0 0 0 0 0 0 0 0 0 0 0 0 0 0 0 0 0 0 0 0 1 0 0 0 0 0 0 0 2 0 1 2 3 0 0 0 4 1 1 0
0 0 0 0 0 0 0 0 0 0 0 0 0 0 0 0 0 0 0 0 0 2 1 1 7 0 0 0 0 2 0 0 0 0 1 0 3 1 0 0 0 1 0
0 0 0 0 0 0 0 0 0 0 0 0 0 0 0 0 0 0 0 0 0 2 4 5 10 10 0 0 0 0 2 0 0 0 0 0 4 4 1 0 0 0 0
0 0 0 0 0 0 0 0 0 0 0 1 1 1 0 0 1 1 0 0 0 0 0 7 19 21 6 1 0 6 0 0 0 0 0 2 1 1 6 3 1 1 0

GFSSE_con_mlcape_285.txt.gz
CAPE
236 296 224 489 391 379 456 231 188 215 312 257 156 106 198 306 378 322 231 197 170 231 321 644 668 599 561 418 311 26 0 0 0 15 311 501 407 305 270 75 122 83 3
292 274 249 387 432 454 499 348 143 169 239 282 253 207 147 265 186 399 400 317 237 153 279 377 435 311 421 368 245 40 0 0 0 266 393 366 265 253 200 48 81 5 0
469 305 307 338 414 324 292 367 237 113 141 200 312 269 219 280 312 505 514 458 391 339 203 210 270 207 297 247 127 55 10 0 55 353 151 286 193 214 110 38 7 0 1
492 471 431 301 412 346 300 278 215 113 107 188 185 306 361 326 522 459 446 385 401 498 485 280 199 257 160 115 60 38 22 23 198 166 107 126 162 146 60 21 0 2 6
648 629 485 406 419 345 294 303 248 235 149 90 135 231 219 387 474 411 373 425 347 338 483 425 423 311 128 72 32 28 16 134 129 95 59 121 94 113 77 35 13 7 4
339 649 323 327 357 364 363 321 212 178 153 133 218 193 229 261 227 257 247 243 296 279 373 340 351 388 256 102 37 53 44 52 38 18 24 88 66 176 99 48 8 6 9
71 141 75 187 300 306 287 222 212 187 142 98 118 46 113 166 196 173 71 75 80 80 169 282 329 275 331 115 73 75 70 50 32 0 41 85 105 119 118 33 8 13 3
0 0 0 0 0 11 20 100 136 139 154 198 125 98 127 70 80 67 98 165 141 154 122 130 264 224 190 14 35 58 24 0 11 2 40 111 108 90 142 31 15 3 5
0 0 0 0 0 0 0 0 0 0 0 2 11 53 60 65 103 80 39 67 91 76 139 45 116 28 47 45 2 59 35 5 0 31 49 80 88 109 171 33 10 6 7
0 0 0 0 0 0 0 0 0 0 0 0 0 0 0 12 76 58 11 32 56 22 31 65 0 36 44 2 26 47 0 19 11 33 39 64 60 137 177 58 9 22 4
0 0 0 0 0 0 0 0 0 0 0 0 0 0 0 0 0 1 48 17 7 69 85 55 47 35 73 19 24 30 25 31 0 24 44 17 75 115 170 70 33 26 6
0 0 0 0 0 0 0 0 0 0 0 0 0 0 0 0 0 0 0 1 26 0 2 42 59 73 65 29 12 0 25 21 1 0 5 13 54 111 156 80 43 28 13
0 0 0 0 0 0 0 0 0 0 0 0 0 0 0 0 0 0 0 0 18 16 0 44 44 105 131 45 27 3 0 0 13 7 0 2 4 79 163 110 53 25 14
0 0 0 0 0 0 0 0 0 0 0 0 0 0 0 0 0 0 0 0 0 0 46 33 57 50 91 104 30 35 7 0 4 8 1 0 2 42 131 108 99 45 11
0 0 0 0 0 0 0 0 0 0 0 0 0 0 0 0 0 0 0 0 0 0 0 0 22 109 108 75 83 56 45 20 15 47 8 0 0 55 71 135 103 90 47
0 0 0 0 0 0 0 0 0 0 0 0 0 0 0 0 0 0 0 0 0 0 0 0 0 0 34 48 49 57 56 53 35 50 46 1 0 20 58 186 126 105 107
0 0 0 0 0 0 0 0 0 0 0 0 0 0 0 0 0 0 0 0 0 0 0 0 0 0 0 1 21 62 69 52 57 90 88 75 0 1 37 61 220 147 113
0 0 0 0 0 0 0 0 0 0 0 0 0 0 0 0 0 0 0 0 0 0 0 0 0 0 0 0 0 78 113 48 68 59 124 117 105 59 3 58 44 73 74
0 0 0 0 0 0 0 0 0 0 0 0 0 0 0 0 0 0 0 0 0 0 0 0 0 0 0 0 0 1 72 63 54 85 79 125 118 155 143 39 63 39 52
0 0 0 0 0 0 0 0 0 0 0 0 0 0 0 0 0 0 0 0 0 0 0 0 1 0 0 0 0 0 0 16 58 75 70 78 124 140 180 177 64 34 37
0 0 0 0 0 0 0 0 0 0 0 0 0 0 0 0 0 0 0 0 0 0 0 0 0 2 1 0 0 0 0 0 3 108 57 75 46 55 123 139 203 94 12
0 0 0 0 0 0 0 0 0 0 0 0 0 0 0 0 0 0 0 0 0 0 0 0 0 0 11 10 0 0 0 0 0 8 75 13 24 21 75 125 131 113 36
0 0 0 0 0 0 0 0 0 0 0 0 0 0 0 0 0 0 0 0 0 0 0 0 0 0 2 11 13 0 0 0 0 0 0 1 5 2 5 43 76 95 45
0 0 0 0 0 0 0 0 0 0 0 0 0 0 0 0 0 0 0 0 0 1 0 0 0 0 0 1 5 12 0 0 7 0 0 0 0 1 6 12 23 35 43
0 0 0 0 0 0 0 0 0 0 0 0 0 0 0 0 1 1 1 0 1 2 2 2 3 1 0 4 1 12 13 1 0 2 0 0 0 0 2 4 11 29 20
0 0 0 0 0 0 0 0 0 0 0 0 0 0 0 1 0 1 1 0 0 1 1 1 4 2 2 5 6 5 14 15 5 0 0 2 0 0 2 2 13 30 81

GFSSE_con_mlcape_288.txt.gz
CAPE
189 303 234 405 500 475 303 196 240 252 283 247 153 127 108 230 242 237 227 220 194 164 220 312 430 759 517 378 269 84 0 0 0 0 26 0 467 404 361 97 167 100 74
412 355 268 421 528 506 424 253 165 227 255 285 243 150 70 34 166 229 256 296 224 178 137 170 339 397 487 362 143 23 0 0 0 61 418 467 361 289 273 83 49 20 6
350 353 330 460 417 375 375 325 191 118 169 206 319 345 214 170 153 255 320 261 282 326 291 222 152 189 231 284 141 48 0 0 6 268 303 228 179 249 274 91 41 22 11
495 545 412 436 386 335 327 320 223 125 96 141 175 284 284 265 342 457 428 387 285 256 385 337 191 104 139 105 69 39 0 0 39 274 137 183 103 184 190 75 36 11 21
585 439 410 409 429 353 296 298 260 220 128 73 99 209 275 408 445 477 431 413 423 426 438 479 436 262 118 43 5 2 0 0 27 174 106 139 109 75 189 97 47 20 14
362 313 243 325 364 344 323 293 252 241 228 202 219 202 196 274 288 262 276 218 270 251 299 372 395 436 288 143 0 0 0 0 60 102 83 85 58 116 154 84 39 5 7
86 0 6 145 208 232 225 242 225 195 177 143 113 162 106 79 67 99 76 113 88 51 116 119 252 337 373 338 137 0 0 0 0 84 3 16 43 125 136 115 41 8 11
0 0 0 0 0 0 0 12 63 97 74 108 143 160 169 199 128 68 60 46 60 203 139 156 81 74 213 260 301 105 51 23 0 0 0 6 24 33 66 155 44 39 12
0 0 0 0 0 0 0 0 0 0 0 0 0 0 4 26 51 97 92 40 17 53 119 87 134 87 44 85 53 56 37 44 0 0 0 19 24 42 56 140 70 28 19
0 0 0 0 0 0 0 0 0 0 0 0 0 0 0 0 0 3 31 33 8 32 40 54 37 65 0 27 17 34 18 47 0 0 0 9 48 59 46 147 54 27 25
0 0 0 0 0 0 0 0 0 0 0 0 0 0 0 0 0 0 0 0 28 23 12 40 49 67 40 3 17 27 17 33 11 0 9 0 25 51 87 106 18 10 13
0 0 0 0 0 0 0 0 0 0 0 0 0 0 0 0 0 0 0 0 0 0 3 0 6 3 36 54 51 24 20 9 9 1 0 0 2 123 207 128 35 43 30
0 0 0 0 0 0 0 0 0 0 0 0 0 0 0 0 0 0 0 0 0 0 4 6 0 19 24 30 61 17 6 16 17 3 3 0 0 117 257 181 102 62 29
0 0 0 0 0 0 0 0 0 0 0 0 0 0 0 0 0 0 0 0 0 0 0 0 25 9 36 41 41 35 3 6 2 5 12 18 0 112 256 304 169 111 66
0 0 0 0 0 0 0 0 0 0 0 0 0 0 0 0 0 0 0 0 0 0 0 0 0 22 20 43 42 54 60 42 0 1 18 21 15 68 185 253 341 207 109
0 0 0 0 0 0 0 0 0 0 0 0 0 0 0 0 0 0 0 0 0 0 0 0 0 0 0 3 69 100 83 113 66 48 11 27 22 67 121 156 327 350 183
0 0 0 0 0 0 0 0 0 0 0 0 0 0 0 0 0 0 0 0 0 0 0 0 0 0 0 0 0 10 18 94 76 65 44 38 7 33 129 130 171 374 295
0 0 0 0 0 0 0 0 0 0 0 0 0 0 0 0 0 0 0 0 0 0 0 0 0 0 0 0 0 0 8 81 79 46 53 56 44 35 96 160 134 235 326
0 0 0 0 0 0 0 0 0 0 0 0 0 0 0 0 0 0 0 0 0 0 0 0 0 0 0 0 0 0 0 0 31 59 76 33 59 40 59 121 190 129 228
0 0 0 0 0 0 0 0 0 0 0 0 0 0 0 0 0 0 0 0 0 0 0 0 0 0 0 0 0 0 0 0 0 4 73 49 35 54 110 94 100 133 95
0 0 0 0 0 0 0 0 0 0 0 0 0 0 0 0 0 0 0 0 0 0 0 0 0 0 0 3 7 0 0 0 0 0 0 38 68 61 53 60 117 128 96
0 0 0 0 0 0 0 0 0 0 0 0 0 0 0 0 0 0 0 0 0 0 0 0 0 0 0 1 14 1 0 0 0 0 0 0 110 70 85 41 52 131 98
0 0 0 0 0 0 0 0 0 0 0 0 0 0 0 0 0 0 0 0 0 0 0 0 0 0 0 0 0 27 1 0 0 0 0 0 2 80 57 60 35 135 68
0 0 0 0 0 0 0 0 0 0 0 0 0 0 0 0 0 0 0 0 0 0 0 0 0 0 0 0 0 0 14 1 0 0 0 0 0 14 25 88 81 134 147
0 0 0 0 0 0 0 0 0 0 0 0 0 0 0 0 0 0 0 0 0 0 0 0 0 1 0 0 0 1 0 1 11 1 0 0 0 0 0 14 24 66 74
0 0 0 0 0 0 0 0 0 0 0 0 0 0 0 0 0 0 0 0 0 0 1 0 0 0 0 0 1 3 7 7 11 20 3 1 0 0 0 0 1 5 27

GFSSE_con_mlcape_291.txt.gz
CAPE
329 328 372 655 659 477 359 315 241 247 226 212 193 150 179 180 176 160 167 179 176 189 179 203 265 409 493 358 195 31 0 0 0 0 0 248 279 419 277 118 185 203 150
356 362 438 480 575 517 315 249 244 257 302 235 179 143 132 95 110 151 176 161 183 245 183 182 237 281 327 283 218 28 0 0 0 0 79 323 422 444 226 144 88 122 26
397 414 534 452 519 437 401 270 194 194 209 294 388 247 157 145 138 131 160 127 107 256 251 202 162 221 244 218 25 3 0 0 0 19 276 162 123 256 280 75 56 54 36
537 449 465 452 399 384 371 283 196 147 152 177 215 238 224 198 262 326 292 236 133 128 276 347 191 155 159 183 52 11 1 0 0 106 197 112 128 144 245 137 95 45 21
507 489 458 448 409 367 361 345 257 169 95 73 89 181 183 258 334 395 350 294 314 248 184 269 394 228 87 92 37 2 0 0 0 73 81 89 62 94 203 186 89 63 22
208 283 414 452 438 405 380 329 281 234 189 156 144 179 186 224 265 182 183 180 158 230 299 226 217 410 279 86 27 0 0 0 0 7 67 36 58 95 101 232 51 40 32
0 58 196 218 244 211 220 220 248 259 223 201 146 126 132 106 69 69 91 40 28 83 79 125 146 56 202 206 128 29 0 0 0 0 0 0 37 139 171 149 72 25 25
0 0 0 0 2 28 83 104 76 49 36 27 50 97 139 155 173 138 84 77 45 2 39 154 121 120 28 33 168 102 22 0 9 0 0 0 0 147 162 44 116 26 11
0 0 0 0 0 0 0 0 0 0 0 0 0 0 1 18 28 29 35 72 56 33 18 82 64 28 103 40 4 125 75 32 0 0 0 0 0 126 158 37 131 32 32
0 0 0 0 0 0 0 0 0 0 0 0 0 0 0 0 0 0 0 0 33 42 33 18 43 1 19 51 20 5 0 2 0 0 0 0 0 14 243 19 132 67 29
0 0 0 0 0 0 0 0 0 0 0 0 0 0 0 0 0 0 0 0 0 0 28 5 0 29 6 2 0 0 3 3 1 0 0 0 0 41 127 127 50 84 44
0 0 0 0 0 0 0 0 0 0 0 0 0 0 0 0 0 0 0 0 0 0 0 0 2 0 0 0 1 4 1 5 3 0 0 0 0 4 172 147 83 153 94
0 0 0 0 0 0 0 0 0 0 0 0 0 0 0 0 0 0 0 0 0 0 0 0 0 0 0 0 5 0 15 13 16 7 0 0 0 15 176 249 57 201 102
0 0 0 0 0 0 0 0 0 0 0 0 0 0 0 0 0 0 0 0 0 0 0 0 0 0 0 2 1 6 0 12 25 13 3 3 14 29 162 314 150 242 154
0 0 0 0 0 0 0 0 0 0 0 0 0 0 0 0 0 0 0 0 0 0 0 0 0 0 0 0 10 15 24 10 40 46 28 11 8 44 67 250 331 121 268
0 0 0 0 0 0 0 0 0 0 0 0 0 0 0 0 0 0 0 0 0 0 0 0 0 0 0 0 0 1 35 44 60 46 15 7 4 27 91 132 262 270 263
0 0 0 0 0 0 0 0 0 0 0 0 0 0 0 0 0 0 0 0 0 0 0 0 0 0 0 0 0 0 0 0 43 75 50 7 6 0 26 98 167 328 336
0 0 0 0 0 0 0 0 0 0 0 0 0 0 0 0 0 0 0 0 0 0 0 0 0 0 0 0 0 0 0 0 0 4 38 43 30 31 4 57 147 157 392
0 0 0 0 0 0 0 0 0 0 0 0 0 0 0 0 0 0 0 0 0 0 0 0 0 0 0 0 0 0 0 0 0 0 0 47 57 27 35 33 59 86 147
0 0 0 0 0 0 0 0 0 0 0 0 0 0 0 0 0 0 0 0 0 0 0 0 0 0 0 0 0 0 0 0 0 0 0 0 21 65 69 64 48 68 115
0 0 0 0 0 0 0 0 0 0 0 0 0 0 0 0 0 0 0 0 0 0 0 0 0 0 0 0 0 0 0 0 0 0 0 0 0 8 99 98 53 104 95
0 0 0 0 0 0 0 0 0 0 0 0 0 0 0 0 0 0 0 0 0 0 0 0 0 0 0 0 0 0 0 0 0 0 0 0 0 0 0 100 110 104 83
0 0 0 0 0 0 0 0 0 0 0 0 0 0 0 0 0 0 0 0 0 0 0 0 0 0 0 0 0 2 3 0 0 0 0 0 0 0 0 45 134 54 24
0 0 0 0 0 0 0 0 0 0 0 0 0 0 0 0 0 0 0 0 1 0 0 0 0 0 2 2 0 0 0 0 1 1 0 0 0 0 0 48 112 121 87
0 0 0 0 0 0 0 0 0 0 0 0 0 0 0 0 0 0 0 0 0 0 1 0 0 1 0 1 0 1 0 0 0 2 2 3 0 0 0 0 0 31 68
0 0 0 0 0 0 0 0 0 0 0 0 0 0 0 0 0 0 0 0 1 1 1 2 4 2 2 2 2 2 4 5 3 6 1 4 2 0 0 0 0 0 3